• Processing (Info)

  • MPEC 2010-L30 : 2010 LN14

    The following Minor Planet Electronic Circular may be linked-to from your own Web pages, but must not otherwise be redistributed electronically.

    A form allowing access to any MPEC is at the bottom of this page.


    Read MPEC 2010-L29 Read MPEC 2010-L31


    M.P.E.C. 2010-L30                                Issued 2010 June 7, 16:38 UT
    
         The Minor Planet Electronic Circulars contain information on unusual
             minor planets and routine data on comets.  They are published
       on behalf of Commission 20 of the International Astronomical Union by the
              Minor Planet Center, Smithsonian Astrophysical Observatory,
                              Cambridge, MA 02138, U.S.A.
    
                 Prepared using the Tamkin Foundation Computer Network
    
                                  MPC@CFA.HARVARD.EDU
           URL https://www.minorplanetcenter.org/iau/mpc.html  ISSN 1523-6714
    
                                       2010 LN14
    
    Observations:
         K10L14N* C2010 06 06.27549 15 27 11.01 -27 30 06.7          19.0 R EL030926
         K10L14N  C2010 06 06.28481 15 27 07.39 -27 29 59.5          19.1 R EL030926
         K10L14N  C2010 06 06.29634 15 27 02.94 -27 29 50.5          19.0 R EL030926
         K10L14N KC2010 06 06.96493 15 22 54.26 -27 21 43.4          19.2 V EL030J87
         K10L14N KC2010 06 06.96919 15 22 52.55 -27 21 41.5          18.8 V EL030J87
         K10L14N KC2010 06 06.97351 15 22 50.88 -27 21 36.6          19.1 V EL030J87
         K10L14N  C2010 06 07.12738 15 21 53.94 -27 19 37.3          20.0 R EL030H26
         K10L14N  C2010 06 07.12976 15 21 52.90 -27 19 35.8          19.8 R EL030H26
         K10L14N  C2010 06 07.13209 15 21 52.06 -27 19 33.4          20.0 R EL030H26
         K10L14N KC2010 06 07.17111 15 21 36.94 -27 19 02.3          19.0 R EL030H36
         K10L14N KC2010 06 07.17739 15 21 34.45 -27 18 57.6          19.3 R EL030H36
         K10L14N KC2010 06 07.18389 15 21 31.89 -27 18 53.0          19.5 R EL030H36
         K10L14N  C2010 06 07.18546315 21 30.97 -27 18 50.9          18.4 V EL030H21
         K10L14N  C2010 06 07.19431315 21 27.46 -27 18 44.5          18.7 V EL030H21
         K10L14N  C2010 06 07.20687 15 21 23.58 -27 18 32.3          18.4 V EL030291
         K10L14N  C2010 06 07.21124 15 21 21.90 -27 18 28.2          19.2 V EL030291
         K10L14N  C2010 06 07.21552 15 21 20.13 -27 18 24.7          18.9 V EL030291
    
    Observer details:
    291 LPL/Spacewatch II.  Observer T. H. Bressi.  1.8-m f/2.7 reflector + CCD.
    926 Tenagra II Observatory.  Observers M. Schwartz, P. R. Holvorcem.  0.41-m
        f/3.75 astrograph + CCD.
    H21 Astronomical Research Observatory, Westfield.  Observer R. Holmes.
        Measurer S. Foglia.
    H26 Doc Greiner Research Observatory, Janesvillle.  Observer M. Mills.  0.40-m
        f/8 Schmidt-Cassegrain + CCD.
    H36 Sandlot Observatory, Scranton.  Observer G. Hug.  0.56-m reflector + CCD.
    J87 La Canada.  Observer J. Lacruz.  0.40-m Ritchey-Chretien + CCD.
    
    Orbital elements:
    2010 LN14                                           PHA, Earth MOID = 0.0183 AU
    Epoch 2010 July 23.0 TT = JDT 2455400.5                 MPC
    M 324.81057              (2000.0)            P               Q
    n   0.82010510     Peri.   31.64137     +0.95544789     -0.29509199
    a   1.1303763      Node   345.51759     +0.26524975     +0.86783389
    e   0.4551985      Incl.    1.44992     +0.12946772     +0.39973124
    P   1.20           H   21.5           G   0.15           U   9
    Residuals in seconds of arc
    100606 926  0.7+  0.5-    100607 H26  1.0+  0.1+    100607 H21  0.6+  0.5+
    100606 926  0.3+  0.1-    100607 H26  0.4-  0.2-    100607 H21  0.4+  0.2-
    100606 926  0.1+  0.5+    100607 H26  0.6+  0.4+    100607 291  0.6+  0.7-
    100606 J87  0.8+  0.3+    100607 H36  0.1+  0.1+    100607 291  1.4+  0.0
    100606 J87  0.2+  1.2-    100607 H36  0.1-  0.1-    100607 291  0.4+  0.2+
    100606 J87  0.6+  0.3+    100607 H36  0.1+  0.5-
    
    Ephemeris:
    2010 LN14                a,e,i = 1.13, 0.46, 1                   q = 0.6158
    Date    TT    R. A. (2000) Decl.     Delta      r     Elong.  Phase     V
    2010 06 03    15 46.18   -27 59.5    0.226    1.235   166.0    11.5    19.4
    2010 06 13    14 41.61   -25 29.0    0.182    1.166   143.1    31.6    19.5
    2010 06 23    13 23.83   -19 32.0    0.159    1.093   115.0    57.5    19.8
    2010 07 03    12 06.10   -10 44.0    0.153    1.015    84.9    86.4    20.5
    2010 07 13    10 55.19   -01 06.6    0.164    0.933    55.5   116.2    22.0
    
    Carl W. Hergenrother         (C) Copyright 2010 MPC           M.P.E.C. 2010-L30
    

    Read MPEC 2010-L29 Read MPEC 2010-L31


    MPEC number:

    Enter an MPEC number in one of the following forms:

    • 1997-B01 (the full form)
    • J97B01 (the packed version of the full form)
    • B01 (the abbreviated form)